Westminster, MD

11:34 PM EDT on May 20, 2018 (GMT -0400)
Carroll County Regional-Poage

Weather History for KDMW - January, 2014

Change the Weather History Date:

Monday, January 13, 2014

  Actual Average (KTHV) Record (KTHV)
Temperature  
Mean Temperature 42 °F -  
Max Temperature 55 °F 0 °F 64 °F (2005)
Min Temperature 30 °F - 12 °F (2011)
Degree Days  
Heating Degree Days 22    
Moisture  
Dew Point 33 °F    
Average Humidity 68    
Maximum Humidity 87    
Minimum Humidity 51    
Precipitation  
Precipitation 0.00 in - - ()
Sea Level Pressure  
Sea Level Pressure 29.99 in    
Wind  
Wind Speed 5 mph (SSE)    
Max Wind Speed 14 mph    
Max Gust Speed 21 mph    
Visibility 10 miles    
Events      
Averages and records for this station are not official NWS values.
T = Trace of Precipitation, MM = Missing Value Source: NWS Daily Summary

Daily Weather History Graph

Daily Weather History Graph

Search for Another Location

Airport or City:

Astronomy

Jan. 13, 2014 Rise Set
Actual Time 7:27 AM EST 5:06 PM EST
Civil Twilight 6:57 AM EST 5:35 PM EST
Nautical Twilight 6:24 AM EST 6:09 PM EST
Astronomical Twilight 5:52 AM EST 6:41 PM EST
Moon 3:19 PM EST (1/13) 5:14 AM EST (1/13)
Length of Visible Light 10h 37m
Length of Day
9h 38m
Waxing Gibbous, 95% of the Moon is Illuminated
Jan 13
Waxing Gibbous
Jan 15
Full
Jan 24
Last Quarter
Jan 30
New
Feb 6
First Quarter

Hourly Weather History & Observations

Time (EST) Temp. Windchill Dew Point Humidity Pressure Visibility Wind Dir Wind Speed Gust Speed Precip Events Conditions
12:00 AM 32.0 °F 28.7 °F 26.6 °F 80% 30.08 in 10.0 mi SE 3.5 mph - N/A   Clear
12:20 AM 33.8 °F 29.6 °F 26.6 °F 75% 30.09 in 10.0 mi SSE 4.6 mph - N/A   Clear
12:40 AM 30.2 °F - 24.8 °F 80% 30.10 in 10.0 mi Calm Calm - N/A   Scattered Clouds
1:00 AM 32.0 °F 28.7 °F 26.6 °F 80% 30.09 in 10.0 mi SE 3.5 mph - N/A   Scattered Clouds
1:20 AM 32.0 °F 27.5 °F 26.6 °F 80% 30.08 in 10.0 mi ESE 4.6 mph - N/A   Scattered Clouds
1:40 AM 32.0 °F 28.7 °F 26.6 °F 80% 30.09 in 10.0 mi SSE 3.5 mph - N/A   Scattered Clouds
2:00 AM 33.8 °F 30.8 °F 26.6 °F 75% 30.08 in 10.0 mi SE 3.5 mph - N/A   Clear
2:20 AM 33.8 °F 29.6 °F 28.4 °F 81% 30.10 in 10.0 mi South 4.6 mph - N/A   Clear
2:40 AM 33.8 °F - 28.4 °F 81% 30.09 in 10.0 mi Calm Calm - N/A   Clear
3:00 AM 33.8 °F - 26.6 °F 75% 30.08 in 10.0 mi Calm Calm - N/A   Scattered Clouds
3:20 AM 33.8 °F 30.8 °F 28.4 °F 81% 30.08 in 10.0 mi SSE 3.5 mph - N/A   Clear
3:40 AM 33.8 °F 30.8 °F 28.4 °F 81% 30.08 in 10.0 mi SSE 3.5 mph - N/A   Clear
4:00 AM 33.8 °F 30.8 °F 28.4 °F 81% 30.09 in 10.0 mi South 3.5 mph - N/A   Clear
4:20 AM 35.6 °F 32.8 °F 28.4 °F 75% 30.08 in 10.0 mi ESE 3.5 mph - N/A   Clear
4:40 AM 33.8 °F 27.7 °F 28.4 °F 81% 30.06 in 10.0 mi SE 6.9 mph - N/A   Scattered Clouds
4:55 AM 35.6 °F 31.7 °F 28.4 °F 75% 30.08 in 10.0 mi SE 4.6 mph - N/A   Scattered Clouds
5:20 AM 33.8 °F - 28.4 °F 81% 30.08 in 10.0 mi Calm Calm - N/A   Scattered Clouds
5:40 AM 33.8 °F 30.8 °F 30.2 °F 87% 30.07 in 10.0 mi SE 3.5 mph - N/A   Clear
6:00 AM 33.8 °F 29.6 °F 28.4 °F 81% 30.07 in 10.0 mi SE 4.6 mph - N/A   Clear
6:20 AM 33.8 °F - 28.4 °F 81% 30.07 in 10.0 mi Calm Calm - N/A   Scattered Clouds
6:40 AM 33.8 °F 27.7 °F 28.4 °F 81% 30.07 in 10.0 mi SE 6.9 mph - N/A   Scattered Clouds
7:00 AM 33.8 °F 30.8 °F 28.4 °F 81% 30.07 in 10.0 mi SSE 3.5 mph - N/A   Scattered Clouds
7:20 AM 33.8 °F - 28.4 °F 81% 30.07 in 10.0 mi Calm Calm - N/A   Clear
7:40 AM 32.0 °F - 28.4 °F 87% 30.08 in 7.0 mi Calm Calm - N/A   Clear
8:00 AM 33.8 °F 29.6 °F 30.2 °F 87% 30.07 in 10.0 mi SSE 4.6 mph - N/A   Clear
8:20 AM 33.8 °F 29.6 °F 30.2 °F 87% 30.07 in 10.0 mi SSE 4.6 mph - N/A   Clear
8:40 AM 35.6 °F 31.7 °F 30.2 °F 81% 30.08 in 10.0 mi SSE 4.6 mph - N/A   Clear
9:00 AM 37.4 °F 34.9 °F 30.2 °F 75% 30.08 in 10.0 mi South 3.5 mph - N/A   Clear
9:20 AM 39.2 °F 35.9 °F 32.0 °F 75% 30.08 in 10.0 mi South 4.6 mph - N/A   Clear
9:40 AM 41.0 °F 38.0 °F 32.0 °F 70% 30.07 in 10.0 mi South 4.6 mph - N/A   Clear
10:00 AM 41.0 °F 37.1 °F 32.0 °F 70% 30.06 in 10.0 mi SSE 5.8 mph - N/A   Clear
10:20 AM 42.8 °F 39.3 °F 32.0 °F 66% 30.05 in 10.0 mi South 5.8 mph - N/A   Clear
10:40 AM 42.8 °F 40.1 °F 32.0 °F 66% 30.04 in 10.0 mi South 4.6 mph - N/A   Clear
11:00 AM 44.6 °F 41.4 °F 32.0 °F 61% 30.03 in 10.0 mi SSE 5.8 mph - N/A   Clear
11:20 AM - - - N/A% 30.02 in 10.0 mi South 8.1 mph - N/A   Clear
11:40 AM 46.4 °F 40.4 °F 33.8 °F 62% 30.00 in 10.0 mi South 13.8 mph 17.3 mph N/A   Clear
12:00 PM 48.2 °F - 33.8 °F 58% 29.99 in 10.0 mi South 8.1 mph - N/A   Clear
12:20 PM 48.2 °F - 33.8 °F 58% 29.98 in 10.0 mi South 10.4 mph 16.1 mph N/A   Clear
12:40 PM 48.2 °F - 33.8 °F 58% 29.97 in 10.0 mi SSW 9.2 mph - N/A   Clear
1:00 PM 51.8 °F - 35.6 °F 54% 29.95 in 10.0 mi South 9.2 mph - N/A   Clear
1:20 PM 51.8 °F - 35.6 °F 54% 29.94 in 10.0 mi South 9.2 mph - N/A   Clear
1:40 PM 53.6 °F - 35.6 °F 51% 29.93 in 10.0 mi South 8.1 mph - N/A   Clear
2:00 PM 53.6 °F - 37.4 °F 54% 29.93 in 10.0 mi South 11.5 mph 20.7 mph N/A   Clear
2:20 PM 53.6 °F - 37.4 °F 54% 29.93 in 10.0 mi South 11.5 mph 19.6 mph N/A   Clear
2:40 PM 53.6 °F - 39.2 °F 58% 29.93 in 10.0 mi South 10.4 mph 16.1 mph N/A   Clear
3:00 PM 55.4 °F - 39.2 °F 54% 29.93 in 10.0 mi South 10.4 mph 18.4 mph N/A   Clear
3:20 PM 53.6 °F - 35.6 °F 51% 29.93 in 10.0 mi South 12.7 mph 16.1 mph N/A   Clear
3:40 PM 53.6 °F - 37.4 °F 54% 29.93 in 10.0 mi South 8.1 mph - N/A   Clear
4:00 PM 53.6 °F - 37.4 °F 54% 29.93 in 10.0 mi South 4.6 mph - N/A   Clear
4:20 PM 53.6 °F - 39.2 °F 58% 29.92 in 10.0 mi South 8.1 mph - N/A   Clear
4:40 PM 51.8 °F - 37.4 °F 58% 29.93 in 10.0 mi South 5.8 mph - N/A   Clear
5:00 PM 51.8 °F - 37.4 °F 58% 29.92 in 10.0 mi South 8.1 mph - N/A   Clear
5:20 PM 51.8 °F - 37.4 °F 58% 29.93 in 10.0 mi South 8.1 mph - N/A   Clear
5:40 PM 51.8 °F - 37.4 °F 58% 29.91 in 10.0 mi SSE 9.2 mph - N/A   Clear
6:00 PM 51.8 °F - 37.4 °F 58% 29.90 in 10.0 mi SSE 6.9 mph - N/A   Clear
6:20 PM 51.8 °F - 37.4 °F 58% 29.90 in 10.0 mi South 8.1 mph - N/A   Clear
6:40 PM 51.8 °F - 37.4 °F 58% 29.91 in 10.0 mi SSE 8.1 mph - N/A   Clear
7:00 PM 50.0 °F - 37.4 °F 62% 29.90 in 10.0 mi SSE 8.1 mph - N/A   Clear
7:20 PM 50.0 °F - 39.2 °F 66% 29.90 in 10.0 mi SSE 8.1 mph - N/A   Clear
7:40 PM 50.0 °F - 37.4 °F 62% 29.90 in 10.0 mi South 9.2 mph - N/A   Clear
8:00 PM 48.2 °F - 37.4 °F 66% 29.89 in 10.0 mi South 9.2 mph - N/A   Clear
8:20 PM 50.0 °F - 37.4 °F 62% 29.89 in 10.0 mi South 9.2 mph - N/A   Clear
8:40 PM 50.0 °F - 37.4 °F 62% 29.89 in 10.0 mi South 9.2 mph - N/A   Clear
9:05 PM 50.0 °F - 37.4 °F 62% 29.88 in 10.0 mi South 10.4 mph 16.1 mph N/A   Clear
9:25 PM 51.8 °F - 37.4 °F 58% 29.87 in 10.0 mi South 11.5 mph 18.4 mph N/A   Clear
9:45 PM 51.8 °F - 37.4 °F 58% 29.88 in 10.0 mi South 12.7 mph 18.4 mph N/A   Clear
10:05 PM 51.8 °F - 39.2 °F 62% 29.87 in 10.0 mi SSW 13.8 mph 18.4 mph N/A   Clear
10:25 PM 51.8 °F - 37.4 °F 58% 29.87 in 10.0 mi SSW 12.7 mph 17.3 mph N/A   Clear
10:45 PM 51.8 °F - 37.4 °F 58% 29.86 in 10.0 mi SSW 11.5 mph 17.3 mph N/A   Clear
11:05 PM 51.8 °F - 39.2 °F 62% 29.86 in 10.0 mi South 8.1 mph - N/A   Clear
11:25 PM 50.0 °F - 37.4 °F 62% 29.87 in 10.0 mi South 6.9 mph - N/A   Clear
11:45 PM 50.0 °F - 37.4 °F 62% 29.85 in 10.0 mi South 6.9 mph - N/A   Mostly Cloudy